Regional Weather Roundup
Issued by NWS

Home | Current Version | Previous Version | Graphics & Text | Print | Product List | Glossary On
Versions: 1 2 3 4 5 6 7 8 9 10 11 12 13 14 15 16 17 18 19 20 21 22 23 24 25 26 27 28 29 30 31 32 33 34 35 36 37 38 39 40 41 42 43 44 45 46 47 48 49 50
000
ASUS43 KFSD 261610
RWRSD

WEATHER ROUNDUP FOR SOUTH DAKOTA
NATIONAL WEATHER SERVICE SIOUX FALLS SD
1100 AM CDT TUE JUL 26 2016

NOTE: "FAIR" INDICATES FEW OR NO CLOUDS BELOW 12,000 FEET WITH NO
SIGNIFICANT WEATHER AND/OR OBSTRUCTIONS TO VISIBILITY.


SDZ001>005-009-010-012>017-261700-
NORTHWEST AND NORTH CENTRAL SOUTH DAKOTA

CITY           SKY/WX    TMP DP  RH WIND       PRES   REMARKS
BUFFALO          N/A     66  61  84 N7        29.96R
FAITH            N/A     76  52  43 E17       29.97F
MOBRIDGE       CLOUDY    86  64  47 W13       29.97R
$$

SDZ012>016-024>037-041>051-057-063-072>074-261700-
SOUTHWEST AND SOUTH CENTRAL SOUTH DAKOTA

CITY           SKY/WX    TMP DP  RH WIND       PRES   REMARKS
RAPID CTY ARPT PTSUNNY   71  58  63 SE6       30.05F
PIERRE         PTSUNNY   85  66  53 W15       30.01R
CUSTER         CLOUDY    72  50  45 NE10      30.18S
ELLSWORTH AFB  PTSUNNY   72  59  62 S7        30.05R
PHILIP         MOSUNNY   83  56  39 NE21      29.99F
PINE RIDGE     CLOUDY    78  65  63 NE15G23   30.09S
WINNER         FAIR      87  64  46 SW14      30.03R
$$

SDZ004>011-016>023-039-040-261700-
NORTHEAST SOUTH DAKOTA

CITY           SKY/WX    TMP DP  RH WIND       PRES   REMARKS
ABERDEEN       CLOUDY    71  63  75 NW20G29   30.06R THUNDER
WATERTOWN      SUNNY     82  66  58 SW13      30.04F
BROOKINGS      SUNNY     80  66  62 W10       30.06F
SISSETON         N/A     80  66  62 W15G22    29.97S
$$

SDZ017-020-022-023-036>040-048>070-261700-
SOUTHEAST SOUTH DAKOTA

CITY           SKY/WX    TMP DP  RH WIND       PRES   REMARKS
SIOUX FALLS    MOSUNNY   81  65  58 S9        30.07S
HURON          SUNNY     82  66  58 S10       30.01F
CHAMBERLAIN    SUNNY     86  69  56 S9        30.02S
MITCHELL       SUNNY     84  66  54 SW9       30.03F
YANKTON        SUNNY     82  64  54 S8        30.04S
$$

ABBREVIATIONS USED IN REMARKS
   TC - TEMPERATURE IN CELSIUS
  WCI - WIND CHILL INDEX
   HX - HEAT INDEX
  VSB - VISIBILITY





USA.gov is the U.S. government's official web portal to all federal, state and local government web resources and services.